| time (UTC) | temp C | wind direction | speed KPH | gust KPH | rain 1hr cm | rain 24hr cm | rain mn cm | humidity % | barometer mb |
| 20260902093050 | 14 | 254 | 0.0 | 0.0 | 0.00 | 0.03 | 0.00 | 64 | 1006.3 |
| 20260902090042 | 15 | 254 | 0.0 | 0.0 | 0.00 | 0.03 | 0.00 | 62 | 1006.2 |
| 20260902084539 | 15 | 254 | 0.0 | 0.0 | 0.00 | 0.05 | 0.00 | 63 | 1006.2 |
| 20260902083036 | 15 | 254 | 0.0 | 0.0 | 0.00 | 0.05 | 0.00 | 61 | 1006.3 |
| 20260902081549 | 16 | 254 | 0.0 | 1.6 | 0.00 | 0.05 | 0.00 | 60 | 1006.3 |
| 20260902080033 | 16 | 254 | 0.0 | 0.0 | 0.00 | 0.05 | 0.00 | 57 | 1006.2 |
| 20260902074528 | 17 | 254 | 0.0 | 0.0 | 0.00 | 0.05 | 0.00 | 57 | 1006.4 |
| 20260902073024 | 17 | 254 | 0.0 | 0.0 | 0.00 | 0.05 | 0.00 | 53 | 1006.2 |
| 20260902071531 | 18 | 254 | 0.0 | 0.0 | 0.00 | 0.05 | 0.00 | 50 | 1006.2 |
| 20260902070019 | 18 | 254 | 0.0 | 0.0 | 0.00 | 0.05 | 0.00 | 50 | 1006.1 |
| 20260902064516 | 18 | 254 | 0.0 | 1.6 | 0.00 | 0.08 | 0.00 | 47 | 1006.0 |
| 20260902063015 | 18 | 254 | 0.0 | 4.8 | 0.00 | 0.08 | 0.00 | 46 | 1005.8 |
| 20260902061514 | 18 | 249 | 0.0 | 0.0 | 0.00 | 0.08 | 0.00 | 47 | 1006.0 |
| 20260902060012 | 18 | 249 | 0.0 | 4.8 | 0.00 | 0.08 | 0.00 | 48 | 1005.9 |
| 20260902054512 | 18 | 249 | 0.0 | 4.8 | 0.00 | 0.08 | 0.08 | 49 | 1005.9 |
| 20260902053011 | 18 | 250 | 0.0 | 0.0 | 0.00 | 0.08 | 0.08 | 51 | 1006.0 |
| 20260902051510 | 18 | 262 | 0.0 | 0.0 | 0.00 | 0.08 | 0.08 | 52 | 1006.0 |
| 20260902050011 | 18 | 263 | 0.0 | 0.0 | 0.00 | 0.08 | 0.08 | 52 | 1006.0 |
| 20260902044522 | 19 | 263 | 0.0 | 0.0 | 0.00 | 0.08 | 0.08 | 53 | 1006.2 |
| 20260902043008 | 20 | 264 | 0.0 | 0.0 | 0.00 | 0.08 | 0.08 | 51 | 1006.3 |
| 20260902041507 | 20 | 264 | 0.0 | 0.0 | 0.00 | 0.08 | 0.08 | 49 | 1006.4 |
| 20260902040007 | 21 | 264 | 0.0 | 0.0 | 0.00 | 0.08 | 0.08 | 47 | 1006.4 |
| 20260902034506 | 21 | 264 | 0.0 | 0.0 | 0.00 | 0.10 | 0.08 | 46 | 1006.5 |
| 20260902033005 | 21 | 242 | 0.0 | 0.0 | 0.00 | 0.10 | 0.08 | 46 | 1006.6 |
| 20260902031508 | 21 | 303 | 0.0 | 0.0 | 0.00 | 0.10 | 0.08 | 47 | 1006.5 |
| 20260902030005 | 21 | 346 | 0.0 | 0.0 | 0.00 | 0.10 | 0.08 | 44 | 1006.6 |
| 20260902024504 | 22 | 346 | 0.0 | 0.0 | 0.00 | 0.30 | 0.08 | 45 | 1006.4 |
| 20260902023003 | 23 | 346 | 0.0 | 0.0 | 0.00 | 0.30 | 0.08 | 41 | 1005.9 |
| 20260902021503 | 23 | 346 | 0.0 | 0.0 | 0.00 | 0.30 | 0.08 | 38 | 1005.8 |
| 20260902020136 | 23 | 346 | 0.0 | 0.0 | 0.00 | 0.30 | 0.08 | 39 | 1005.8 |
| 20260902014503 | 24 | 278 | 0.0 | 0.0 | 0.00 | 0.30 | 0.08 | 35 | 1005.7 |
| 20260902013001 | 25 | 333 | 0.0 | 0.0 | 0.00 | 0.30 | 0.08 | 37 | 1005.7 |
| 20260902011600 | 25 | 11 | 0.0 | 0.0 | 0.00 | 0.30 | 0.08 | 36 | 1005.6 |
| 20260902010059 | 25 | 265 | 0.0 | 0.0 | 0.00 | 0.30 | 0.08 | 35 | 1005.5 |
| 20260902004559 | 26 | 243 | 0.0 | 0.0 | 0.00 | 0.36 | 0.08 | 34 | 1005.5 |
| 20260902003104 | 27 | 190 | 0.0 | 0.0 | 0.00 | 0.36 | 0.08 | 35 | 1005.2 |
| 20260902001558 | 27 | 190 | 0.0 | 0.0 | 0.00 | 0.36 | 0.08 | 34 | 1005.3 |
| 20260902000057 | 28 | 190 | 0.0 | 0.0 | 0.00 | 0.36 | 0.08 | 35 | 1005.2 |
| 20260901234608 | 28 | 190 | 0.0 | 0.0 | 0.00 | 0.36 | 0.08 | 36 | 1005.3 |
| 20260901233059 | 29 | 190 | 0.0 | 0.0 | 0.00 | 0.36 | 0.08 | 34 | 1005.4 |
| 20260901231557 | 30 | 190 | 0.0 | 0.0 | 0.00 | 0.36 | 0.08 | 32 | 1005.4 |
| 20260901230057 | 30 | 190 | 0.0 | 0.0 | 0.00 | 0.36 | 0.08 | 26 | 1005.3 |
| 20260901224555 | 31 | 217 | 0.0 | 0.0 | 0.00 | 0.36 | 0.08 | 26 | 1005.4 |
| 20260901223100 | 30 | 219 | 0.0 | 0.0 | 0.00 | 0.36 | 0.08 | 30 | 1005.4 |
| 20260901221609 | 29 | 234 | 0.0 | 0.0 | 0.03 | 0.36 | 0.08 | 33 | 1005.6 |
| 20260901220048 | 28 | 71 | 0.0 | 0.0 | 0.03 | 0.36 | 0.08 | 32 | 1005.6 |
| 20260901214547 | 27 | 78 | 0.0 | 3.2 | 0.03 | 0.36 | 0.08 | 34 | 1005.8 |
| 20260901213048 | 28 | 92 | 0.0 | 0.0 | 0.03 | 0.36 | 0.08 | 43 | 1006.0 |
| 20260901211544 | 28 | 68 | 0.0 | 0.0 | 0.00 | 0.33 | 0.05 | 33 | 1006.2 |
| 20260901210043 | 28 | 68 | 0.0 | 0.0 | 0.00 | 0.33 | 0.05 | 29 | 1006.2 |
| 20260901204546 | 29 | 88 | 0.0 | 6.4 | 0.00 | 0.33 | 0.05 | 30 | 1006.2 |
| 20260901203057 | 28 | 95 | 1.6 | 11.3 | 0.00 | 0.33 | 0.05 | 30 | 1006.2 |
| 20260901201547 | 29 | 106 | 0.0 | 4.8 | 0.00 | 0.33 | 0.05 | 31 | 1006.4 |
| 20260901200038 | 30 | 93 | 0.0 | 6.4 | 0.00 | 0.33 | 0.05 | 29 | 1006.4 |
| 20260901193033 | 28 | 94 | 0.0 | 9.7 | 0.00 | 0.33 | 0.05 | 34 | 1006.7 |
| 20260901191530 | 27 | 105 | 3.2 | 14.5 | 0.00 | 0.33 | 0.05 | 35 | 1006.9 |
| 20260901190039 | 27 | 102 | 4.8 | 12.9 | 0.00 | 0.33 | 0.05 | 37 | 1006.9 |
| 20260901184524 | 26 | 75 | 0.0 | 6.4 | 0.00 | 0.33 | 0.05 | 37 | 1007.4 |
| 20260901183022 | 27 | 61 | 0.0 | 12.9 | 0.00 | 0.33 | 0.05 | 38 | 1007.3 |
| 20260901181522 | 26 | 74 | 1.6 | 11.3 | 0.00 | 0.33 | 0.05 | 41 | 1007.7 |
| 20260901180016 | 26 | 77 | 1.6 | 14.5 | 0.00 | 0.33 | 0.05 | 41 | 1007.9 |
| 20260901174514 | 26 | 114 | 0.0 | 12.9 | 0.00 | 0.33 | 0.05 | 44 | 1008.0 |
| 20260901173014 | 25 | 113 | 1.6 | 14.5 | 0.00 | 0.33 | 0.05 | 45 | 1008.3 |
| 20260901171510 | 25 | 107 | 1.6 | 12.9 | 0.00 | 0.33 | 0.05 | 47 | 1008.3 |
| 20260901170007 | 23 | 92 | 0.0 | 11.3 | 0.00 | 0.33 | 0.05 | 49 | 1008.4 |
| 20260901164559 | 22 | 77 | 0.0 | 4.8 | 0.00 | 0.33 | 0.05 | 55 | 1008.4 |
| 20260901163104 | 21 | 154 | 0.0 | 4.8 | 0.00 | 0.33 | 0.05 | 63 | 1008.4 |
| 20260901161551 | 19 | 103 | 0.0 | 0.0 | 0.00 | 0.33 | 0.05 | 71 | 1008.4 |
| 20260901160057 | 18 | 132 | 0.0 | 0.0 | 0.00 | 0.33 | 0.05 | 80 | 1008.3 |
| 20260901154542 | 16 | 225 | 0.0 | 0.0 | 0.00 | 0.33 | 0.05 | 89 | 1008.5 |
| 20260901153041 | 16 | 225 | 0.0 | 0.0 | 0.00 | 0.33 | 0.05 | 91 | 1008.6 |
| 20260901151538 | 15 | 225 | 0.0 | 0.0 | 0.00 | 0.33 | 0.05 | 92 | 1008.4 |
| 20260901150038 | 15 | 225 | 0.0 | 0.0 | 0.00 | 0.33 | 0.05 | 92 | 1008.2 |
| 20260901144539 | 15 | 225 | 0.0 | 0.0 | 0.00 | 0.33 | 0.05 | 92 | 1008.4 |
| 20260901143037 | 14 | 225 | 0.0 | 0.0 | 0.00 | 0.33 | 0.05 | 92 | 1008.5 |
| 20260901141537 | 14 | 225 | 0.0 | 0.0 | 0.00 | 0.33 | 0.05 | 92 | 1008.5 |
| 20260901140037 | 13 | 225 | 0.0 | 0.0 | 0.00 | 0.33 | 0.05 | 91 | 1008.5 |
| 20260901134555 | 13 | 225 | 0.0 | 0.0 | 0.00 | 0.33 | 0.05 | 91 | 1008.4 |
| 20260901133035 | 13 | 225 | 0.0 | 0.0 | 0.00 | 0.33 | 0.05 | 91 | 1008.2 |
| 20260901131535 | 13 | 226 | 0.0 | 0.0 | 0.00 | 0.33 | 0.05 | 90 | 1007.9 |
| 20260901130034 | 13 | 225 | 0.0 | 0.0 | 0.00 | 0.33 | 0.05 | 90 | 1007.4 |
| 20260901124534 | 13 | 225 | 0.0 | 0.0 | 0.00 | 0.33 | 0.05 | 90 | 1007.3 |
| 20260901123133 | 13 | 225 | 0.0 | 0.0 | 0.00 | 0.33 | 0.05 | 90 | 1007.1 |
| 20260901121531 | 13 | 225 | 0.0 | 0.0 | 0.00 | 0.33 | 0.05 | 90 | 1007.0 |
| 20260901120031 | 13 | 225 | 0.0 | 0.0 | 0.00 | 0.33 | 0.05 | 90 | 1007.2 |
| 20260901114534 | 13 | 225 | 0.0 | 0.0 | 0.00 | 0.33 | 0.05 | 90 | 1007.0 |
| 20260901113051 | 13 | 225 | 0.0 | 0.0 | 0.00 | 0.33 | 0.05 | 90 | 1007.1 |
| 20260901111529 | 14 | 225 | 0.0 | 0.0 | 0.00 | 0.33 | 0.05 | 89 | 1007.0 |
| 20260901110024 | 14 | 225 | 0.0 | 0.0 | 0.00 | 0.33 | 0.05 | 89 | 1007.1 |
| 20260901104522 | 14 | 225 | 0.0 | 0.0 | 0.00 | 0.33 | 0.05 | 89 | 1007.3 |
| 20260901103020 | 14 | 225 | 0.0 | 0.0 | 0.00 | 0.33 | 0.05 | 89 | 1007.3 |
| 20260901101517 | 15 | 225 | 0.0 | 0.0 | 0.00 | 0.33 | 0.05 | 89 | 1007.5 |
| 20260901100015 | 15 | 225 | 0.0 | 0.0 | 0.00 | 0.33 | 0.05 | 88 | 1007.8 |
| 20260901094514 | 15 | 225 | 0.0 | 0.0 | 0.00 | 0.33 | 0.05 | 89 | 1007.8 |